When you browse on this site, cookies collect data to enhance your experience and personalize the content and advertising you see.
Visit our Privacy Policy to learn more. By continuing to use the site, you agree to this use of cookies and data.
  • In Czech Republic
  • List of Countries
  • For 7 days
  • Water Temperature
  • Satellite Maps
  • Weather Map
  • Weather Widgets
  • user-avatar
    Login

    Hourly Weather Mons

    Today, 22 January, Tuesday

    Time Temperature Precipitation Wind Pressure Humidity
    00:00 -4°C° 0 mm 4 mps 759 mmHg 57%
    01:00 -5°C° 0 mm 5 mps 758 mmHg 57%
    02:00 -5°C° 0 mm 5 mps 757 mmHg 57%
    03:00 -5°C° 0 mm 6 mps 756 mmHg 57%
    04:00 -5°C° 0 mm 6 mps 756 mmHg 56%
    05:00 -6°C° 0 mm 7 mps 755 mmHg 55%
    06:00 -4°C° 0 mm 7 mps 754 mmHg 55%
    07:00 -4°C° 0.1 mm 7 mps 753 mmHg 60%
    08:00 -5°C° 0.1 mm 8 mps 752 mmHg 64%
    09:00 -5°C° 0.1 mm 8 mps 751 mmHg 69%
    10:00 -4°C° 0.7 mm 7 mps 751 mmHg 76%
    11:00 -4°C° 0.7 mm 7 mps 750 mmHg 83%
    12:00 -4°C° 0.7 mm 7 mps 750 mmHg 90%
    13:00 -4°C° 0.3 mm 6 mps 750 mmHg 90%
    14:00 -2°C° 0.3 mm 5 mps 749 mmHg 90%
    15:00 -2°C° 0.3 mm 5 mps 749 mmHg 91%
    16:00 -2°C° 0 mm 4 mps 748 mmHg 92%
    17:00 -2°C° 0 mm 4 mps 748 mmHg 94%
    18:00 -2°C° 0 mm 4 mps 748 mmHg 96%
    19:00 -2°C° 0 mm 3 mps 748 mmHg 96%
    20:00 -2°C° 0 mm 3 mps 747 mmHg 96%
    21:00 -2°C° 0 mm 3 mps 747 mmHg 96%
    22:00 -3°C° 0 mm 4 mps 746 mmHg 96%
    23:00 -3°C° 0 mm 4 mps 746 mmHg 95%

    Tomorrow, 23 January, Wednesday

    Time Temperature Precipitation Wind Pressure Humidity
    00:00 -3°C° 0 mm 4 mps 745 mmHg 95%
    01:00 -2°C° 0.2 mm 4 mps 745 mmHg 94%
    02:00 -2°C° 0.2 mm 4 mps 745 mmHg 94%
    03:00 -2°C° 0.2 mm 4 mps 744 mmHg 93%
    04:00 -2°C° 0.6 mm 4 mps 744 mmHg 93%
    05:00 -2°C° 0.6 mm 4 mps 744 mmHg 94%
    06:00 -2°C° 0.6 mm 4 mps 744 mmHg 94%
    07:00 -2°C° 0.3 mm 4 mps 744 mmHg 93%
    08:00 -1°C° 0.3 mm 3 mps 744 mmHg 93%
    09:00 -1°C° 0.3 mm 3 mps 745 mmHg 92%
    10:00 -2°C° 0 mm 4 mps 745 mmHg 91%
    11:00 -2°C° 0 mm 4 mps 745 mmHg 90%
    12:00 -1°C° 0 mm 4 mps 746 mmHg 89%
    13:00 -1°C° 0 mm 4 mps 746 mmHg 90%
    14:00 -2°C° 0 mm 4 mps 747 mmHg 90%
    15:00 -2°C° 0 mm 4 mps 747 mmHg 91%
    16:00 -3°C° 0 mm 4 mps 748 mmHg 93%
    17:00 -4°C° 0 mm 3 mps 749 mmHg 94%
    18:00 -4°C° 0 mm 3 mps 750 mmHg 96%
    19:00 -4°C° 0 mm 3 mps 751 mmHg 95%
    20:00 -4°C° 0 mm 3 mps 752 mmHg 95%
    21:00 -4°C° 0 mm 3 mps 752 mmHg 95%
    22:00 -4°C° 0 mm 3 mps 753 mmHg 94%
    23:00 -4°C° 0 mm 3 mps 753 mmHg 94%

    Day after tomorrow, 24 January, Thursday

    Time Temperature Precipitation Wind Pressure Humidity
    00:00 -2°C° 0 mm 2 mps 753 mmHg 94%
    01:00 -2°C° 0 mm 2 mps 754 mmHg 94%
    02:00 -2°C° 0 mm 2 mps 755 mmHg 94%
    03:00 -2°C° 0 mm 2 mps 755 mmHg 94%
    04:00 -2°C° 0 mm 2 mps 755 mmHg 94%
    05:00 +1°C° 0 mm 1 mps 756 mmHg 94%
    06:00 +1°C° 0 mm 1 mps 756 mmHg 94%
    07:00 +1°C° 0 mm 1 mps 756 mmHg 94%
    08:00 +1°C° 0 mm 1 mps 757 mmHg 94%
    09:00 +2°C° 0 mm 1 mps 757 mmHg 94%
    10:00 +2°C° 0 mm 1 mps 757 mmHg 95%
    11:00 +2°C° 0 mm 1 mps 758 mmHg 96%
    12:00 +2°C° 0 mm 2 mps 758 mmHg 96%
    13:00 +2°C° 0 mm 2 mps 758 mmHg 96%
    14:00 +2°C° 0 mm 2 mps 758 mmHg 96%
    15:00 +2°C° 0 mm 1 mps 758 mmHg 96%
    16:00 +2°C° 0 mm 1 mps 759 mmHg 95%
    17:00 -1°C° 0 mm 2 mps 759 mmHg 94%
    18:00 -1°C° 0 mm 2 mps 760 mmHg 93%
    19:00 0°C° 0 mm 1 mps 760 mmHg 92%
    20:00 0°C° 0 mm 1 mps 760 mmHg 92%
    21:00 0°C° 0 mm 1 mps 760 mmHg 92%
    22:00 -2°C° 0 mm 2 mps 761 mmHg 92%
    23:00 -2°C° 0 mm 2 mps 761 mmHg 92%

    25 January, Friday

    Time Temperature Precipitation Wind Pressure Humidity
    00:00 -2°C° 0 mm 2 mps 761 mmHg 93%
    01:00 -3°C° 0 mm 2 mps 761 mmHg 93%
    02:00 -3°C° 0 mm 2 mps 760 mmHg 93%
    03:00 -3°C° 0 mm 2 mps 760 mmHg 93%
    04:00 -2°C° 0 mm 3 mps 760 mmHg 93%
    05:00 -2°C° 0 mm 3 mps 760 mmHg 92%
    06:00 -2°C° 0 mm 3 mps 760 mmHg 92%
    07:00 -1°C° 0 mm 3 mps 760 mmHg 92%
    08:00 -1°C° 0 mm 3 mps 760 mmHg 92%
    09:00 -1°C° 0 mm 4 mps 760 mmHg 91%
    10:00 -1°C° 0 mm 4 mps 760 mmHg 92%
    11:00 -1°C° 0 mm 4 mps 760 mmHg 92%
    12:00 0°C° 0 mm 5 mps 760 mmHg 92%
    13:00 0°C° 0 mm 5 mps 759 mmHg 93%
    14:00 0°C° 0 mm 5 mps 759 mmHg 93%
    15:00 0°C° 0 mm 5 mps 759 mmHg 93%
    16:00 0°C° 0.1 mm 5 mps 758 mmHg 93%
    17:00 -1°C° 0.1 mm 5 mps 758 mmHg 94%
    18:00 -1°C° 0.1 mm 5 mps 758 mmHg 95%
    19:00 -1°C° 0.2 mm 5 mps 758 mmHg 95%
    20:00 0°C° 0.2 mm 5 mps 758 mmHg 95%
    21:00 0°C° 0.2 mm 5 mps 757 mmHg 95%
    22:00 -1°C° 0.1 mm 6 mps 757 mmHg 95%
    23:00 -1°C° 0.1 mm 6 mps 756 mmHg 95%

    26 January, Saturday

    Time Temperature Precipitation Wind Pressure Humidity
    00:00 -1°C° 0.1 mm 6 mps 756 mmHg 95%
    01:00 -1°C° 0 mm 6 mps 755 mmHg 95%
    02:00 -1°C° 0 mm 6 mps 754 mmHg 96%
    03:00 -1°C° 0 mm 6 mps 753 mmHg 96%
    04:00 +1°C° 0.1 mm 6 mps 752 mmHg 96%
    05:00 +1°C° 0.1 mm 6 mps 751 mmHg 96%
    06:00 +2°C° 0.1 mm 7 mps 750 mmHg 95%
    07:00 +2°C° 1.7 mm 7 mps 749 mmHg 95%
    08:00 +2°C° 1.7 mm 7 mps 749 mmHg 95%
    09:00 +2°C° 1.7 mm 7 mps 748 mmHg 95%
    10:00 +2°C° 1.4 mm 7 mps 748 mmHg 94%
    11:00 +2°C° 1.4 mm 7 mps 747 mmHg 94%
    12:00 +2°C° 1.4 mm 7 mps 746 mmHg 94%
    13:00 +2°C° 1.1 mm 6 mps 746 mmHg 94%
    14:00 +2°C° 1.1 mm 6 mps 745 mmHg 94%
    15:00 +2°C° 1.1 mm 5 mps 744 mmHg 95%
    16:00 +3°C° 1.9 mm 4 mps 744 mmHg 95%
    17:00 +2°C° 1.9 mm 3 mps 744 mmHg 96%
    18:00 +3°C° 1.9 mm 2 mps 744 mmHg 97%
    19:00 +1°C° 1.7 mm 4 mps 745 mmHg 95%
    20:00 +1°C° 1.7 mm 5 mps 745 mmHg 93%
    21:00 +2°C° 1.7 mm 7 mps 746 mmHg 90%
    22:00 +2°C° 1.1 mm 7 mps 746 mmHg 90%
    23:00 +2°C° 1.1 mm 7 mps 746 mmHg 89%

    27 January, Sunday

    Time Temperature Precipitation Wind Pressure Humidity
    00:00 0°C° 1.1 mm 7 mps 747 mmHg 88%
    01:00 +1°C° 0.6 mm 6 mps 747 mmHg 88%
    02:00 +1°C° 0.6 mm 5 mps 747 mmHg 88%
    03:00 +1°C° 0.6 mm 5 mps 748 mmHg 87%
    04:00 +1°C° 0.3 mm 4 mps 748 mmHg 89%
    05:00 +1°C° 0.3 mm 4 mps 748 mmHg 90%
    06:00 +1°C° 0.3 mm 3 mps 749 mmHg 92%
    07:00 +1°C° 0.1 mm 4 mps 749 mmHg 91%
    08:00 +1°C° 0.1 mm 4 mps 750 mmHg 90%
    09:00 +1°C° 0.1 mm 5 mps 751 mmHg 89%
    10:00 +2°C° 0.1 mm 5 mps 751 mmHg 85%
    11:00 +3°C° 0.1 mm 5 mps 751 mmHg 81%
    12:00 +3°C° 0.1 mm 5 mps 752 mmHg 77%
    13:00 +3°C° 0.1 mm 5 mps 752 mmHg 77%
    14:00 +3°C° 0.1 mm 5 mps 752 mmHg 77%
    15:00 +3°C° 0.1 mm 4 mps 752 mmHg 77%
    16:00 +1°C° 0 mm 4 mps 752 mmHg 80%
    17:00 +1°C° 0 mm 3 mps 753 mmHg 83%
    18:00 0°C° 0 mm 3 mps 753 mmHg 86%
    19:00 +1°C° 0 mm 2 mps 754 mmHg 87%
    20:00 -1°C° 0 mm 2 mps 754 mmHg 87%
    21:00 -1°C° 0 mm 2 mps 755 mmHg 87%
    22:00 -1°C° 0 mm 2 mps 755 mmHg 87%
    23:00 -1°C° 0 mm 2 mps 755 mmHg 87%
    Show more